Regional Weather Roundup
Issued by NWS

Home | Current Version | Previous Version | Text Only | Print | Product List | Glossary Off
Versions: 1 2 3 4 5 6 7 8 9 10 11 12 13 14 15 16 17 18 19 20 21 22 23 24 25 26 27 28 29 30 31 32 33 34 35 36 37 38 39 40 41 42 43 44 45 46 47 48 49 50

000
ASUS43 KLSX 240657
RWRMO

WEATHER SUMMARY FOR MISSOURI
NATIONAL WEATHER SERVICE SPRINGFIELD MO
100 AM CST WED JAN 24 2018

NOTE: "FAIR" INDICATES FEW OR NO CLOUDS BELOW 12,000 FEET WITH NO
       SIGNIFICANT WEATHER AND/OR OBSTRUCTIONS TO VISIBILITY.
       CURRENT SKY AND/OR WEATHER CONDITIONS ARE NOT AVAILABLE FOR
       CHILLICOTHE AND FARMINGTON.

MOZ001>031-035>038-043-044-053-054-240800-
...NORTHERN AND WESTERN MISSOURI...

CITY           SKY/WX    TMP DP  RH WIND       PRES   REMARKS
KANSAS CTY INT PTCLDY    26  23  88 SW6       30.25S WCI  19
LEE`S SUMMIT   PTCLDY    28  24  85 W7        30.26S WCI  21
ST JOSEPH      CLEAR     24  23  96 CALM      30.26S FOG
CHILLICOTHE      N/A     24  22  91 CALM      30.27S

$$
MOZ066>068-077>081-088>096-101>105-240800-
...SOUTHWEST MISSOURI...

CITY           SKY/WX    TMP DP  RH WIND       PRES   REMARKS
SPRINGFIELD    CLEAR     27  22  81 W3        30.27S
JOPLIN         CLEAR     29  25  85 SW5       30.31S WCI  24

$$
MOZ032>034-039>042-045>050-055>058-069>072-240800-
...CENTRAL MISSOURI...

CITY           SKY/WX    TMP DP  RH WIND       PRES   REMARKS
COLUMBIA       NOT AVBL
JEFFERSON CITY CLEAR     28  24  85 CALM      30.28S
ROLLA          CLEAR     25  23  92 W7        30.25S WCI  17
SEDALIA        CLOUDY    27  26  96 SW5       30.27S WCI  22
WARRENSBURG    PTCLDY    27  23  86 S3        30.28S

$$
MOZ051-052-059>065-240800-
...EAST CENTRAL MISSOURI...

CITY           SKY/WX    TMP DP  RH WIND       PRES   REMARKS
ST LOUIS INTL  CLOUDY    32  24  72 W9        30.25S WCI  24

$$
MOZ072>076-082>087-097>100-106>115-240800-
...SOUTH CENTRAL AND SOUTHEAST MISSOURI...

CITY           SKY/WX    TMP DP  RH WIND       PRES   REMARKS
CAPE GIRARDEAU FAIR      28  25  88 W3        30.27F
POPLAR BLUFF   FAIR      27  25  92 CALM      30.29S
WEST PLAINS    CLEAR     25  23  92 CALM      30.26F

$$


USA.gov is the U.S. government's official web portal to all federal, state and local government web resources and services.